Weather History for Bentonville, AR

Change the Weather History Date:

Saturday, June 15, 2013

  Actual Average Record
Temperature  
Mean Temperature 79 °F -  
Max Temperature 89 °F 84 °F 102 °F (1953)
Min Temperature 69 °F 62 °F 51 °F (1959)
Cooling Degree Days 14    
Growing Degree Days 29 (Base 50)    
Moisture  
Dew Point 67 °F    
Average Humidity 70    
Maximum Humidity 88    
Minimum Humidity 52    
Precipitation  
Precipitation 0.19 in - - ()
Sea Level Pressure  
Sea Level Pressure 30.02 in    
Wind  
Wind Speed 7 mph (South)    
Max Wind Speed 15 mph    
Max Gust Speed 22 mph    
Visibility 10 miles    
Events Thunderstorm    
Averages and records for this station are not official NWS values.
T = Trace of Precipitation, MM = Missing Value Source: NWS Daily Summary

Daily Weather History Graph

Daily Weather History Graph

Search for Another Location

Airport:

Trip Planner

Search our weather history database for the weather conditions in past years. The results will help you decide how hot, cold, wet, or windy it might be!

Date:

Astronomy

Jun. 15, 2013 Rise Set
Actual Time 5:58 AM CDT 8:36 PM CDT
Civil Twilight 5:28 AM CDT 9:06 PM CDT
Nautical Twilight 4:50 AM CDT 9:44 PM CDT
Astronomical Twilight 4:08 AM CDT 10:26 PM CDT
Moon 12:23 PM CDT (6/15) 12:21 AM CDT (6/15)
Length of Visible Light 15h 38m
Length of Day
14h 37m
Waxing Crescent, 40% of the Moon is Illuminated
Jun 15
Waxing Crescent
Jun 16
First Quarter
Jun 23
Full
Jun 29
Last Quarter
Jul 8
New

Hourly Weather History & Observations

Time (CDT) Temp. Heat Index Dew Point Humidity Pressure Visibility Wind Dir Wind Speed Gust Speed Precip Events Conditions
12:15 AM 75.2 °F - 68.0 °F 78% 30.02 in 10.0 mi SE 8.1 mph - N/A   Clear
12:35 AM 75.2 °F - 69.8 °F 83% 30.02 in 10.0 mi SE 5.8 mph - N/A   Mostly Cloudy
12:56 AM 75.2 °F - 68.0 °F 78% 30.02 in 10.0 mi SE 6.9 mph - N/A   Mostly Cloudy
1:15 AM 75.2 °F - 66.2 °F 73% 30.02 in 10.0 mi SE 5.8 mph - N/A   Scattered Clouds
1:35 AM 75.2 °F - 66.2 °F 73% 30.02 in 10.0 mi SSE 6.9 mph - N/A   Partly Cloudy
1:55 AM 75.2 °F - 66.2 °F 73% 30.01 in 10.0 mi SSE 5.8 mph - N/A   Clear
2:16 AM 73.4 °F - 66.2 °F 78% 30.01 in 10.0 mi SSE 4.6 mph - N/A   Clear
2:35 AM 73.4 °F - 64.4 °F 73% 30.01 in 10.0 mi SE 4.6 mph - N/A   Clear
2:55 AM 73.4 °F - 64.4 °F 73% 30.02 in 10.0 mi SSE 5.8 mph - N/A   Clear
3:15 AM 73.4 °F - 64.4 °F 73% 30.01 in 10.0 mi SSE 5.8 mph - N/A   Clear
3:35 AM 73.4 °F - 64.4 °F 73% 30.02 in 10.0 mi SSE 4.6 mph - N/A   Clear
3:55 AM 71.6 °F - 64.4 °F 78% 30.02 in 10.0 mi SE 5.8 mph - N/A   Clear
4:15 AM 71.6 °F - 64.4 °F 78% 30.02 in 10.0 mi SE 4.6 mph - N/A   Clear
4:35 AM 73.4 °F - 64.4 °F 73% 30.02 in 10.0 mi SSE 6.9 mph - N/A   Scattered Clouds
4:55 AM 71.6 °F - 62.6 °F 73% 30.02 in 10.0 mi SSE 5.8 mph - N/A   Partly Cloudy
5:15 AM 71.6 °F - 62.6 °F 73% 30.02 in 10.0 mi SSE 4.6 mph - N/A   Clear
5:35 AM 71.6 °F - 62.6 °F 73% 30.01 in 10.0 mi South 3.5 mph - N/A   Clear
5:55 AM 71.6 °F - 62.6 °F 73% 30.02 in 10.0 mi Calm Calm - N/A   Clear
6:15 AM 71.6 °F - 62.6 °F 73% 30.02 in 10.0 mi Calm Calm - N/A   Clear
6:35 AM 71.6 °F - 64.4 °F 78% 30.02 in 10.0 mi Calm Calm - N/A   Clear
6:56 AM 71.6 °F - 64.4 °F 78% 30.02 in 10.0 mi ESE 4.6 mph - N/A   Clear
7:15 AM 71.6 °F - 64.4 °F 78% 30.02 in 10.0 mi SSE 3.5 mph - N/A   Clear
7:35 AM 73.4 °F - 62.6 °F 69% 30.02 in 10.0 mi South 3.5 mph - N/A   Clear
7:56 AM 73.4 °F - 64.4 °F 73% 30.02 in 10.0 mi SSE 3.5 mph - N/A   Clear
8:15 AM 73.4 °F - 64.4 °F 73% 30.03 in 10.0 mi South 3.5 mph - N/A   Clear
8:35 AM 77.0 °F - 64.4 °F 65% 30.03 in 10.0 mi South 6.9 mph - N/A   Clear
8:55 AM 77.0 °F - 64.4 °F 65% 30.03 in 10.0 mi SSE 4.6 mph - N/A   Clear
9:16 AM 78.8 °F - 64.4 °F 61% 30.04 in 10.0 mi South 6.9 mph - N/A   Clear
9:35 AM 78.8 °F - 64.4 °F 61% 30.04 in 10.0 mi South 8.1 mph - N/A   Clear
9:55 AM 80.6 °F 82.7 °F 66.2 °F 61% 30.05 in 10.0 mi South 5.8 mph - N/A   Clear
10:15 AM 82.4 °F 84.6 °F 66.2 °F 58% 30.04 in 10.0 mi SSE 5.8 mph - N/A   Clear
10:35 AM 82.4 °F 84.6 °F 66.2 °F 58% 30.05 in 10.0 mi South 6.9 mph - N/A   Clear
10:55 AM 82.4 °F 84.6 °F 66.2 °F 58% 30.05 in 10.0 mi SSW 5.8 mph - N/A   Clear
11:15 AM 84.2 °F 88.4 °F 69.8 °F 62% 30.05 in 10.0 mi SSW 5.8 mph - N/A   Clear
11:35 AM 86.0 °F 90.4 °F 69.8 °F 58% 30.05 in 10.0 mi SSW 4.6 mph - N/A   Clear
11:55 AM 86.0 °F 90.4 °F 69.8 °F 58% 30.04 in 10.0 mi South 4.6 mph - N/A   Clear
12:15 PM 87.8 °F 92.6 °F 69.8 °F 55% 30.03 in 10.0 mi South 6.9 mph - N/A   Clear
12:36 PM 87.8 °F 92.6 °F 69.8 °F 55% 30.02 in 10.0 mi SSW 8.1 mph - N/A   Clear
12:55 PM 87.8 °F 92.6 °F 69.8 °F 55% 30.01 in 10.0 mi SSW 8.1 mph - N/A   Clear
1:15 PM 87.8 °F 93.8 °F 71.6 °F 58% 30.01 in 10.0 mi South 8.1 mph - N/A   Clear
1:36 PM 89.6 °F 96.2 °F 71.6 °F 55% 30.01 in 10.0 mi South 10.4 mph - N/A   Scattered Clouds
1:55 PM 87.8 °F 93.8 °F 71.6 °F 58% 30.00 in 10.0 mi South 8.1 mph - N/A   Mostly Cloudy
2:15 PM 89.6 °F 96.2 °F 71.6 °F 55% 29.99 in 10.0 mi South 12.7 mph 16.1 mph N/A   Partly Cloudy
2:36 PM 89.6 °F 94.7 °F 69.8 °F 52% 29.99 in 10.0 mi South 9.2 mph - N/A   Mostly Cloudy
2:55 PM 89.6 °F 94.7 °F 69.8 °F 52% 29.98 in 10.0 mi SSW 15.0 mph 21.9 mph N/A   Scattered Clouds
3:15 PM 87.8 °F 91.4 °F 68.0 °F 52% 29.97 in 10.0 mi South 13.8 mph 19.6 mph N/A   Clear
3:35 PM 87.8 °F 91.4 °F 68.0 °F 52% 29.98 in 10.0 mi SSW 12.7 mph 20.7 mph N/A   Partly Cloudy
3:55 PM 87.8 °F 91.4 °F 68.0 °F 52% 29.98 in 10.0 mi SSW 11.5 mph 16.1 mph N/A   Partly Cloudy
4:15 PM 84.2 °F 87.3 °F 68.0 °F 58% 29.98 in 10.0 mi SSW 9.2 mph - N/A   Partly Cloudy
4:35 PM 84.2 °F 88.4 °F 69.8 °F 62% 29.98 in 10.0 mi SW 11.5 mph - N/A   Clear
4:55 PM 84.2 °F 87.3 °F 68.0 °F 58% 29.98 in 10.0 mi SSW 10.4 mph - N/A   Partly Cloudy
5:15 PM 84.2 °F 87.3 °F 68.0 °F 58% 29.99 in 10.0 mi SSW 6.9 mph - N/A   Clear
5:35 PM 84.2 °F 87.3 °F 68.0 °F 58% 29.99 in 10.0 mi SW 6.9 mph - N/A   Partly Cloudy
5:55 PM 82.4 °F 86.3 °F 69.8 °F 66% 30.00 in 10.0 mi West 11.5 mph 16.1 mph N/A   Mostly Cloudy
6:15 PM 80.6 °F 83.2 °F 68.0 °F 65% 30.01 in 10.0 mi WNW 10.4 mph - N/A   Overcast
6:35 PM 77.0 °F - 66.2 °F 69% 30.02 in 10.0 mi NW 11.5 mph 21.9 mph N/A   Overcast
6:56 PM 75.2 °F - 66.2 °F 73% 30.02 in 10.0 mi North 15.0 mph 18.4 mph N/A   Overcast
7:15 PM 73.4 °F - 66.2 °F 78% 30.02 in 10.0 mi North 12.7 mph 21.9 mph N/A   Mostly Cloudy
7:35 PM 73.4 °F - 66.2 °F 78% 30.03 in 10.0 mi North 12.7 mph - N/A   Scattered Clouds
7:55 PM 71.6 °F - 66.2 °F 83% 30.04 in 10.0 mi NNW 5.8 mph - N/A   Partly Cloudy
8:15 PM 71.6 °F - 66.2 °F 83% 30.06 in 10.0 mi NW 6.9 mph - N/A Thunderstorm Mostly Cloudy
8:36 PM 71.6 °F - 66.2 °F 83% 30.05 in 10.0 mi North 4.6 mph - N/A Thunderstorm Overcast
8:55 PM 69.8 °F - 66.2 °F 88% 30.06 in 10.0 mi Calm Calm - 0.13 in   Mostly Cloudy
9:15 PM 69.8 °F - 66.2 °F 88% 30.04 in 10.0 mi ESE 4.6 mph - 0.03 in   Mostly Cloudy
9:36 PM 69.8 °F - 66.2 °F 88% 29.99 in 10.0 mi ESE 13.8 mph - 0.05 in   Mostly Cloudy
9:55 PM 69.8 °F - 66.2 °F 88% 29.97 in 10.0 mi East 11.5 mph - 0.05 in   Mostly Cloudy
10:15 PM 69.8 °F - 66.2 °F 88% 29.98 in 10.0 mi East 10.4 mph - N/A   Overcast
10:36 PM 71.6 °F - 66.2 °F 83% 30.01 in 10.0 mi SSW 4.6 mph - N/A   Overcast
10:55 PM 69.8 °F - 66.2 °F 88% 30.05 in 10.0 mi SSW 10.4 mph - N/A   Overcast
11:15 PM 69.8 °F - 66.2 °F 88% 30.05 in 10.0 mi South 6.9 mph - N/A   Mostly Cloudy
11:36 PM 69.8 °F - 66.2 °F 88% 30.03 in 10.0 mi SSE 9.2 mph - N/A   Mostly Cloudy
11:55 PM 69.8 °F - 66.2 °F 88% 30.02 in 10.0 mi SE 10.4 mph - 0.01 in   Scattered Clouds